Regional Weather Roundup
Issued by NWS

Home | Current Version | Previous Version | Text Only | Print | Product List | Glossary Off
Versions: 1 2 3 4 5 6 7 8 9 10 11 12 13 14 15 16 17 18 19 20 21 22 23 24 25 26 27 28 29 30 31 32 33 34 35 36 37 38 39 40 41 42 43 44 45 46 47 48 49 50

000
ASUS45 KSLC 040610
RWRUT

UTAH REGIONAL WEATHER ROUNDUP
NATIONAL WEATHER SERVICE SALT LAKE CITY UT
1200 AM MDT WED MAY 04 2016

UTZ001>011-023>025-040700-

NORTHERN UTAH

CITY           SKY/WX    TMP DP  RH WIND       PRES   REMARKS
BRIGHAM CITY   CLEAR     55  43  64 CALM      30.16S
HILL AFB       CLEAR     55  35  47 SE12      30.17S
LOGAN          CLEAR     48  41  76 CALM      30.17S
OGDEN          CLEAR     54  35  48 S9        30.16R
PROVO AIRPORT  CLEAR     54  36  50 SE5       30.18R
SALT LAKE CITY CLEAR     58  38  47 SE5       30.16S
VERNAL         CLEAR     51  30  44 CALM      30.22S
WENDOVER       CLEAR     55  36  47 NW6       30.14F
HEBER CITY     CLEAR     43  32  65 CALM      30.22R

$$

UTZ012>022-026-027-040700-

SOUTHERN/CENTRAL UTAH

CITY           SKY/WX    TMP DP  RH WIND       PRES   REMARKS
BLANDING       CLEAR     49  32  51 NE9       30.31S
BRYCE CANYON   CLEAR     31  27  85 W7        30.32F WCI  24
CEDAR CITY     CLEAR     57  26  30 E12       30.17F
DELTA          CLEAR     55  36  47 NE6       30.14S
HANKSVILLE     CLEAR     54  32  43 NE3       30.20R
MILFORD        CLEAR     52  30  43 NW5       30.15S
MOAB/CYNLANDS  CLEAR     54  35  48 W3        30.15S
PRICE          CLEAR     51  25  36 VRB3      30.23S
ST GEORGE      CLEAR     70  36  28 CALM      30.05S
KANAB          CLEAR     55  34  44 N10       30.20S

$$

REGIONAL REPORTS     COLORADO/ARIZONA

CITY           SKY/WX    TMP DP  RH WIND       PRES   REMARKS
CRAIG, CO      CLEAR     40  33  76 CALM      30.28S
GRAND JUNCTION CLEAR     50  37  61 E6        30.18R
RIFLE          CLEAR     47  32  56 E7        30.24R
MONTROSE       CLEAR     51  30  44 SE10      30.26R
CORTEZ         CLEAR     43  31  62 NE7       30.27R
PAGE, AZ       CLEAR     61  30  31 S3        30.14F
GRAND CANYON   PTCLDY    51  30  44 NE5       30.25S
KINGMAN        PTCLDY    63  40  42 SE14      30.02S
FLAGSTAFF      CLEAR     38  32  79 NE3       30.26F

$$

REGIONAL REPORTS    NEVADA/IDAHO/WYOMING

CITY           SKY/WX    TMP DP  RH WIND       PRES   REMARKS
LAS VEGAS, NV  MOCLDY    76  34  21 SW3       29.91S
ELY            PTCLDY    44  31  60 S9        30.20S
ELKO           CLEAR     50  39  66 CALM      30.12S
POCATELLO, ID  CLEAR     49  40  71 E8        30.16S
BURLEY         CLEAR     51  31  46 SE6       30.12S
EVANSTON, WY   CLEAR     50  22  33 E8        30.29S
ROCK SPRINGS   CLEAR     49  25  39 S7        30.28R
KEMMERER         N/A     45  25  45 N7        30.30S

$$



USA.gov is the U.S. government's official web portal to all federal, state and local government web resources and services.